WetterOnline ( https://www.wetteronline.ch )

Wetter aktuell Kassel

Aktuelles Wetter: Schauenburg-Elgershausen (317m)

6-stündlich | Neueste Meldungen
Ortszeit Temperatur Wetter
Di, 20.08. 8:00 12.6° C leicht bewölkt
Di, 20.08. 2:00 14.3° C bewölkt
Mo, 19.08. 20:00 19.2° C bewölkt
Mo, 19.08. 14:00 19.3° C bewölkt
Mo, 19.08. 8:00 13.5° C wolkenlos
Mo, 19.08. 2:00 13.6° C bedeckt
So, 18.08. 20:00 18.0° C wolkig
So, 18.08. 14:00 20.5° C bedeckt
Ortszeit Temperatur Wetter
Di, 20.08. 11:00 18.0° C leicht bewölkt
Di, 20.08. 10:50 18.0° C leicht bewölkt
Di, 20.08. 10:40 18.2° C leicht bewölkt
Di, 20.08. 10:30 17.4° C wolkig
Di, 20.08. 10:20 17.4° C wolkig
Di, 20.08. 10:10 17.7° C wolkig
Di, 20.08. 10:00 16.2° C leicht bewölkt
Di, 20.08. 9:30 13.8° C bedeckt
Di, 20.08. 9:00 14.4° C wolkig
Di, 20.08. 8:30 14.9° C wolkig
Di, 20.08. 8:00 12.6° C leicht bewölkt
Ortszeit Relative Feuchte Sichtweite
Di, 20.08. 8:00 85% 30 km
Di, 20.08. 2:00 76% 45 km
Mo, 19.08. 20:00 51% 50 km
Mo, 19.08. 14:00 48% >70 km
Mo, 19.08. 8:00 82% 45 km
Mo, 19.08. 2:00 97% 26 km
So, 18.08. 20:00 93% 60 km
So, 18.08. 14:00 84% 55 km
Ortszeit Relative Feuchte Sichtweite
Di, 20.08. 11:00 49% 60 km
Di, 20.08. 10:50 49% -
Di, 20.08. 10:40 52% -
Di, 20.08. 10:30 56% 65 km
Di, 20.08. 10:20 56% -
Di, 20.08. 10:10 66% -
Di, 20.08. 10:00 74% 35 km
Di, 20.08. 9:30 81% 40 km
Di, 20.08. 9:00 78% 35 km
Di, 20.08. 8:30 77% 50 km
Di, 20.08. 8:00 85% 30 km
Ortszeit Niederschlagsmenge Niederschlagsart
Di, 20.08. 8:00 0.0 l/m2 in 12 Std. -
Di, 20.08. 2:00 0.0 l/m2 in 6 Std. -
Mo, 19.08. 20:00 0.0 l/m2 in 12 Std. -
Mo, 19.08. 14:00 0.0 l/m2 in 6 Std. -
Mo, 19.08. 8:00 0.0 l/m2 in 12 Std. -
Mo, 19.08. 2:00 0.0 l/m2 in 6 Std. -
So, 18.08. 20:00 7 l/m2 in 12 Std. Regenschauer
So, 18.08. 14:00 2 l/m2 in 6 Std. Regen
Ortszeit Niederschlagsmenge Niederschlagsart
Di, 20.08. 11:00 0.0 l/m2 in 1 Std. -
Di, 20.08. 10:50 keine Meldung -
Di, 20.08. 10:40 keine Meldung -
Di, 20.08. 10:30 0.0 l/m2 in 1 Std. -
Di, 20.08. 10:20 keine Meldung -
Di, 20.08. 10:10 keine Meldung -
Di, 20.08. 10:00 0.0 l/m2 in 1 Std. -
Di, 20.08. 9:30 0.0 l/m2 in 1 Std. -
Di, 20.08. 9:00 0.0 l/m2 in 1 Std. -
Di, 20.08. 8:30 0.0 l/m2 in 1 Std. -
Di, 20.08. 8:00 0.0 l/m2 in 1 Std. -
Ortszeit Stärke Spitze Richtung
km/h Bft. km/h Grad Sektor
Di, 20.08. 8:00 4 1 11 360° N
Di, 20.08. 2:00 4 1 11 350° N
Mo, 19.08. 20:00 7 2 32 290° W
Mo, 19.08. 14:00 14 3 36 240° SW
Mo, 19.08. 8:00 7 2 14 300° NW
Mo, 19.08. 2:00 4 1 18 350° N
So, 18.08. 20:00 7 2 47 270° W
So, 18.08. 14:00 11 2 25 160° S
Ortszeit Stärke Spitze Richtung
km/h Bft. km/h Grad Sektor
Di, 20.08. 11:00 7 2 14 220° SW
Di, 20.08. 10:50 7 2 - 220° SW
Di, 20.08. 10:40 7 2 - 230° SW
Di, 20.08. 10:30 7 2 14 230° SW
Di, 20.08. 10:20 7 2 - 230° SW
Di, 20.08. 10:10 4 1 - 140° SO
Di, 20.08. 10:00 2 1 11 340° N
Di, 20.08. 9:30 7 2 11 160° S
Di, 20.08. 9:00 6 1 9 150° SO
Di, 20.08. 8:30 0 0 7 - -
Di, 20.08. 8:00 4 1 7 360° N
Ortszeit Untergrenze Bedeckung Gattung
total tief tief mittel hoch
Di, 20.08. 8:00 7500 m 5/8 0/8 - - -
Di, 20.08. 2:00 2100 m 7/8 7/8 - - -
Mo, 19.08. 20:00 2400 m 7/8 6/8 - - -
Mo, 19.08. 14:00 1500 m 7/8 7/8 - - -
Mo, 19.08. 8:00 - 0/8 0/8 - - -
Mo, 19.08. 2:00 5700 m 8/8 8/8 - - -
So, 18.08. 20:00 930 m 8/8 2/8 - - -
So, 18.08. 14:00 450 m 8/8 8/8 - - -
Ortszeit Bedeckungsgrad in Achtel und Wolkenuntergrenze
Di, 20.08. 11:00 4(7200m) 6(7800m)
Di, 20.08. 10:50 4(7200m) 6(7800m)
Di, 20.08. 10:40 5(7500m) 6(10500m)
Di, 20.08. 10:30 4(7200m) 7(10500m)
Di, 20.08. 10:20 4(7200m) 7(10500m)
Di, 20.08. 10:10 4(7500m) 7(10500m)
Di, 20.08. 10:00 4(7200m) 7(10500m)
Di, 20.08. 9:30 8(6300m) 7(7200m) 7(10500m)
Di, 20.08. 9:00 6(6600m) 8(7200m) 8(10500m)
Di, 20.08. 8:30 5(7500m) 7(9000m) 7(10500m)
Di, 20.08. 8:00 2(7500m) 5(9000m)
Ortszeit Luftdruck NN (hPa) Tendenz (hPa in 3 Std.)
Di, 20.08. 8:00 1022 + 0,7
Di, 20.08. 2:00 1021 + 0,9
Mo, 19.08. 20:00 1018 + 0,8
Mo, 19.08. 14:00 1017 + 0,9
Mo, 19.08. 8:00 1016 + 1,7
Mo, 19.08. 2:00 1012 + 1,1
So, 18.08. 20:00 1009 + 2,2
So, 18.08. 14:00 1005 - 1,0
Ortszeit Luftdruck NN (hPa) Tendenz (hPa in 3 Std.)
Di, 20.08. 11:00 1022 + 1,0
Di, 20.08. 10:50 1022 keine Meldung
Di, 20.08. 10:40 1022 keine Meldung
Di, 20.08. 10:30 1022 + 0,7
Di, 20.08. 10:20 1022 keine Meldung
Di, 20.08. 10:10 1022 keine Meldung
Di, 20.08. 10:00 1022 + 1,0
Di, 20.08. 9:30 1023 + 1,2
Di, 20.08. 9:00 1022 + 1,1
Di, 20.08. 8:30 1022 + 0,8
Di, 20.08. 8:00 1022 + 0,7
Ortszeit Schneehöhe (cm)
Di, 20.08. 8:00 -
Di, 20.08. 2:00 -
Mo, 19.08. 20:00 -
Mo, 19.08. 14:00 -
Mo, 19.08. 8:00 -
Mo, 19.08. 2:00 -
So, 18.08. 20:00 -
So, 18.08. 14:00 -
Ortszeit Schneehöhe (cm)
Di, 20.08. 11:00 -
Di, 20.08. 10:50 -
Di, 20.08. 10:40 -
Di, 20.08. 10:30 -
Di, 20.08. 10:20 -
Di, 20.08. 10:10 -
Di, 20.08. 10:00 -
Di, 20.08. 9:30 -
Di, 20.08. 9:00 -
Di, 20.08. 8:30 -
Di, 20.08. 8:00 -
Link zu dieser Seite / Seite empfehlen

Das Wetter in ...